User: anonymous   Login
Location: Unspecified
(0.0000°N, 0.0000°E)
Time: 06:58:54
(UTC+01:00)
Language:

SJ-6B - Orbit

View from above orbital plane
View from above orbital plane
View from above satellite
View from above satellite

Ground track
Ground track

The orbit data is extracted from the following two-line orbital elements,

1 28415U 04035C   17058.79936270  .00000367  00000-0  28848-4 0  9996
2 28415  97.7580  87.3354 0053745 131.4345 229.1517 15.06073637682116
Epoch (UTC): 27 February 2017 19:11:04
Eccentricity: 0.0053745
inclination: 97.7580°
perigee height: 511 km
apogee height: 585 km
right ascension of ascending node: 87.3354°
argument of perigee: 131.4345°
revolutions per day: 15.06073637
mean anomaly at epoch: 229.1517°
orbit number at epoch: 68211

The dashed part of the orbit path shows where the satellite is in the earth's shadow,  

DLR